Location: Newark
(48.8833°N, 0.9236°W)
Time: 07:14:46
(UTC+00:00)

Tiros 1 despin weight - Pass Details

Date: 26 November 2019
Orbit: 594 x 642 km, 48.2° (Epoch: 15 December)

Event Time Altitude Azimuth Distance (km) Brightness Sun altitude
Rises 14:27:21 0° 278° (W) 2,830 ? 12.0°
Reaches altitude 10° 14:29:39 10° 276° (W) 1,929 ? 11.7°
Maximum altitude 14:34:02 68° 194° (SSW) 645 ? 11.3°
Drops below altitude 10° 14:38:27 10° 112° (ESE) 1,940 ? 10.8°
Sets 14:40:45 0° 110° (ESE) 2,849 ? 10.6°
